When you browse on this site, cookies collect data to enhance your experience and personalize the content and advertising you see.
Visit our Privacy Policy to learn more. By continuing to use the site, you agree to this use of cookies and data.
  • In Portugal
  • List of Countries
  • For 7 days
  • Water Temperature
  • Satellite Maps
  • Weather Map
  • Weather Widgets
  • user-avatar
    Login

    Hourly Weather Pogrebische

    Today, 22 April, Monday

    Time Temperature Precipitation Wind Pressure Humidity
    00:00 +7°C° 0 mm 2 mps 747 mmHg 66%
    01:00 +6°C° 0 mm 2 mps 747 mmHg 65%
    02:00 +6°C° 0 mm 2 mps 747 mmHg 66%
    03:00 +5°C° 0 mm 2 mps 747 mmHg 66%
    04:00 +5°C° 0 mm 2 mps 747 mmHg 66%
    05:00 +5°C° 0 mm 2 mps 747 mmHg 67%
    06:00 +7°C° 0 mm 3 mps 748 mmHg 62%
    07:00 +8°C° 0 mm 3 mps 748 mmHg 58%
    08:00 +10°C° 0 mm 3 mps 749 mmHg 53%
    09:00 +11°C° 0 mm 4 mps 749 mmHg 48%
    10:00 +12°C° 0 mm 5 mps 749 mmHg 43%
    11:00 +13°C° 0 mm 5 mps 749 mmHg 38%
    12:00 +13°C° 0 mm 5 mps 749 mmHg 38%
    13:00 +13°C° 0 mm 5 mps 749 mmHg 38%
    14:00 +14°C° 0 mm 5 mps 749 mmHg 39%
    15:00 +14°C° 0 mm 5 mps 749 mmHg 40%
    16:00 +14°C° 0 mm 4 mps 749 mmHg 41%
    17:00 +14°C° 0 mm 4 mps 749 mmHg 42%
    18:00 +12°C° 0 mm 3 mps 749 mmHg 47%
    19:00 +11°C° 0 mm 3 mps 749 mmHg 52%
    20:00 +9°C° 0 mm 2 mps 750 mmHg 56%
    21:00 +8°C° 0 mm 2 mps 750 mmHg 58%
    22:00 +8°C° 0 mm 2 mps 750 mmHg 59%
    23:00 +7°C° 0 mm 2 mps 750 mmHg 60%

    Tomorrow, 23 April, Tuesday

    Time Temperature Precipitation Wind Pressure Humidity
    00:00 +7°C° 0 mm 2 mps 750 mmHg 60%
    01:00 +7°C° 0 mm 2 mps 751 mmHg 60%
    02:00 +7°C° 0 mm 2 mps 751 mmHg 60%
    03:00 +7°C° 0 mm 2 mps 751 mmHg 60%
    04:00 +7°C° 0 mm 2 mps 751 mmHg 60%
    05:00 +7°C° 0 mm 2 mps 751 mmHg 60%
    06:00 +8°C° 0 mm 2 mps 751 mmHg 59%
    07:00 +10°C° 0 mm 3 mps 752 mmHg 58%
    08:00 +11°C° 0 mm 3 mps 752 mmHg 57%
    09:00 +12°C° 0 mm 4 mps 752 mmHg 51%
    10:00 +14°C° 0 mm 4 mps 752 mmHg 44%
    11:00 +15°C° 0 mm 5 mps 752 mmHg 38%
    12:00 +15°C° 0 mm 5 mps 752 mmHg 39%
    13:00 +15°C° 0 mm 5 mps 752 mmHg 39%
    14:00 +15°C° 0 mm 5 mps 752 mmHg 40%
    15:00 +15°C° 0 mm 5 mps 751 mmHg 42%
    16:00 +15°C° 0 mm 5 mps 751 mmHg 43%
    17:00 +15°C° 0 mm 4 mps 751 mmHg 45%
    18:00 +14°C° 0 mm 4 mps 751 mmHg 49%
    19:00 +13°C° 0 mm 3 mps 751 mmHg 52%
    20:00 +12°C° 0 mm 3 mps 751 mmHg 56%
    21:00 +11°C° 0 mm 3 mps 751 mmHg 58%
    22:00 +10°C° 0 mm 3 mps 751 mmHg 59%
    23:00 +9°C° 0 mm 3 mps 751 mmHg 61%

    Day after tomorrow, 24 April, Wednesday

    Time Temperature Precipitation Wind Pressure Humidity
    00:00 +9°C° 0 mm 3 mps 751 mmHg 63%
    01:00 +8°C° 0 mm 3 mps 751 mmHg 64%
    02:00 +7°C° 0 mm 3 mps 752 mmHg 66%
    03:00 +7°C° 0 mm 3 mps 751 mmHg 66%
    04:00 +7°C° 0 mm 2 mps 751 mmHg 67%
    05:00 +6°C° 0 mm 2 mps 751 mmHg 68%
    06:00 +8°C° 0 mm 3 mps 752 mmHg 64%
    07:00 +10°C° 0 mm 3 mps 752 mmHg 60%
    08:00 +12°C° 0 mm 4 mps 752 mmHg 56%
    09:00 +13°C° 0 mm 4 mps 752 mmHg 51%
    10:00 +14°C° 0 mm 5 mps 752 mmHg 47%
    11:00 +16°C° 0 mm 6 mps 752 mmHg 42%
    12:00 +16°C° 0 mm 6 mps 752 mmHg 42%
    13:00 +17°C° 0 mm 5 mps 752 mmHg 41%
    14:00 +17°C° 0 mm 5 mps 752 mmHg 41%
    15:00 +17°C° 0 mm 5 mps 751 mmHg 42%
    16:00 +17°C° 0 mm 5 mps 751 mmHg 43%
    17:00 +17°C° 0 mm 4 mps 751 mmHg 44%
    18:00 +16°C° 0 mm 3 mps 751 mmHg 49%
    19:00 +13°C° 0 mm 3 mps 751 mmHg 53%
    20:00 +12°C° 0 mm 2 mps 751 mmHg 58%
    21:00 +12°C° 0 mm 2 mps 751 mmHg 59%
    22:00 +10°C° 0 mm 2 mps 751 mmHg 61%
    23:00 +10°C° 0 mm 2 mps 751 mmHg 62%

    25 April, Thursday

    Time Temperature Precipitation Wind Pressure Humidity
    00:00 +9°C° 0 mm 2 mps 751 mmHg 64%
    01:00 +9°C° 0 mm 2 mps 751 mmHg 66%
    02:00 +9°C° 0 mm 1 mps 751 mmHg 68%
    03:00 +8°C° 0 mm 2 mps 751 mmHg 68%
    04:00 +8°C° 0 mm 2 mps 751 mmHg 69%
    05:00 +7°C° 0 mm 2 mps 751 mmHg 69%
    06:00 +9°C° 0 mm 2 mps 751 mmHg 65%
    07:00 +11°C° 0 mm 3 mps 751 mmHg 61%
    08:00 +13°C° 0 mm 3 mps 752 mmHg 56%
    09:00 +14°C° 0 mm 4 mps 752 mmHg 52%
    10:00 +17°C° 0 mm 4 mps 751 mmHg 47%
    11:00 +17°C° 0 mm 5 mps 751 mmHg 42%
    12:00 +19°C° 0 mm 5 mps 751 mmHg 42%
    13:00 +19°C° 0 mm 5 mps 751 mmHg 41%
    14:00 +20°C° 0 mm 5 mps 750 mmHg 41%
    15:00 +19°C° 0 mm 5 mps 750 mmHg 42%
    16:00 +19°C° 0 mm 5 mps 749 mmHg 44%
    17:00 +19°C° 0 mm 4 mps 749 mmHg 45%
    18:00 +17°C° 0 mm 4 mps 749 mmHg 51%
    19:00 +14°C° 0 mm 3 mps 749 mmHg 56%
    20:00 +13°C° 0 mm 3 mps 749 mmHg 61%
    21:00 +12°C° 0 mm 3 mps 749 mmHg 62%
    22:00 +11°C° 0 mm 3 mps 749 mmHg 63%
    23:00 +11°C° 0 mm 3 mps 749 mmHg 64%

    26 April, Friday

    Time Temperature Precipitation Wind Pressure Humidity
    00:00 +10°C° 0 mm 3 mps 748 mmHg 64%
    01:00 +10°C° 0 mm 3 mps 748 mmHg 64%
    02:00 +9°C° 0 mm 2 mps 748 mmHg 64%
    03:00 +9°C° 0 mm 2 mps 748 mmHg 65%
    04:00 +8°C° 0 mm 3 mps 748 mmHg 65%
    05:00 +8°C° 0 mm 3 mps 748 mmHg 66%
    06:00 +9°C° 0 mm 3 mps 748 mmHg 63%
    07:00 +11°C° 0 mm 4 mps 748 mmHg 60%
    08:00 +13°C° 0 mm 4 mps 748 mmHg 57%
    09:00 +14°C° 0 mm 5 mps 748 mmHg 51%
    10:00 +16°C° 0 mm 5 mps 748 mmHg 46%
    11:00 +17°C° 0 mm 5 mps 748 mmHg 40%
    12:00 +19°C° 0 mm 5 mps 747 mmHg 39%
    13:00 +19°C° 0 mm 6 mps 747 mmHg 38%
    14:00 +20°C° 0 mm 6 mps 747 mmHg 37%
    15:00 +20°C° 0 mm 5 mps 746 mmHg 39%
    16:00 +19°C° 0 mm 5 mps 746 mmHg 42%
    17:00 +19°C° 0 mm 5 mps 745 mmHg 44%
    18:00 +17°C° 0 mm 4 mps 745 mmHg 49%
    19:00 +15°C° 0 mm 4 mps 745 mmHg 54%
    20:00 +13°C° 0 mm 3 mps 745 mmHg 59%
    21:00 +12°C° 0 mm 3 mps 745 mmHg 61%
    22:00 +12°C° 0 mm 4 mps 745 mmHg 62%
    23:00 +11°C° 0 mm 4 mps 745 mmHg 64%

    27 April, Saturday

    Time Temperature Precipitation Wind Pressure Humidity
    00:00 +11°C° 0 mm 3 mps 745 mmHg 65%
    01:00 +11°C° 0 mm 3 mps 744 mmHg 67%
    02:00 +10°C° 0 mm 3 mps 744 mmHg 68%
    03:00 +10°C° 0 mm 3 mps 744 mmHg 69%
    04:00 +9°C° 0 mm 3 mps 744 mmHg 71%
    05:00 +9°C° 0 mm 3 mps 744 mmHg 72%
    06:00 +11°C° 0 mm 4 mps 744 mmHg 67%
    07:00 +13°C° 0 mm 4 mps 744 mmHg 63%
    08:00 +15°C° 0 mm 5 mps 744 mmHg 59%
    09:00 +16°C° 0 mm 5 mps 744 mmHg 55%
    10:00 +17°C° 0 mm 6 mps 744 mmHg 51%
    11:00 +20°C° 0 mm 6 mps 744 mmHg 47%
    12:00 +21°C° 0 mm 6 mps 744 mmHg 45%
    13:00 +21°C° 0 mm 6 mps 743 mmHg 44%
    14:00 +22°C° 0 mm 5 mps 743 mmHg 42%
    15:00 +21°C° 0 mm 5 mps 743 mmHg 43%
    16:00 +21°C° 0 mm 5 mps 743 mmHg 45%
    17:00 +21°C° 0 mm 4 mps 742 mmHg 46%
    18:00 +19°C° 0 mm 3 mps 743 mmHg 52%
    19:00 +17°C° 0 mm 3 mps 743 mmHg 57%
    20:00 +15°C° 0 mm 2 mps 743 mmHg 62%
    21:00 +15°C° 0 mm 2 mps 743 mmHg 64%
    22:00 +14°C° 0 mm 2 mps 743 mmHg 65%
    23:00 +14°C° 0 mm 2 mps 743 mmHg 67%
    Show more